Location: Newark
(5.8900°S, 42.6378°W)
Time: 22:26:59
(UTC+00:00)

Vanguard 1 Rocket - Pass Details

Date: 21 October 2019
Orbit: 651 x 4225 km, 34.3° (Epoch: 14 November)

Event Time Altitude Azimuth Distance (km) Brightness Sun altitude
Rises 06:49:22 0° 206° (SSW) 2,963 - -24.6°
Exits shadow 06:50:14 - 201° (SSW) 2,681 9.8 -24.4°
Reaches altitude 10° 06:52:29 10° 180° (S) 2,099 9.4 -23.9°
Maximum altitude 06:55:11 15° 144° (SE) 1,911 9.7 -23.2°
Drops below altitude 10° 06:58:17 10° 108° (ESE) 2,484 10.8 -22.5°
Sets 07:02:34 0° 86° (E) 3,897 11.9 -21.5°
